Location: Cantaing
(50.1487°N, 3.1675°E)
Time: 09:38:12
(UTC+00:00)

NOSS 8 (F) - Pass Details

Date: 14 January 2026
Orbit: 363 x 1535 km, 63.3° (Epoch: 18 February)

Event Time Altitude Azimuth Distance (km) Brightness Sun altitude
Exits shadow 06:14:54 22° 321° (NW) 874 5.4 -13.3°
Maximum altitude 06:16:38 81° 46° (NE) 402 4.1 -13.1°
Drops below altitude 10° 06:19:57 10° 135° (SE) 1,556 8.2 -12.6°
Sets 06:22:16 0° 136° (SE) 2,557 9.4 -12.2°
